C/2017 G3 ( PanSTARRS )

Japanese version
Home page
Updated on October 8, 2017

---------------------------------------------------------------------

* Profile

Discovery Date April 7, 2017
Magnitude 19.6 mag
Discoverer Pan-STARRS 1 telescope (Haleakala)

* Pictures

* Orbital Elements

Epoch 2017 Mar. 28.0 TT = JDT 2457840.5
T 2017 Apr. 15.05420 TT                                 MPCW
q   2.5905341            (2000.0)            P               Q
z  +0.0033761      Peri.   73.09953     -0.83357228     -0.42518801
 +/-0.0000994      Node   279.46801     -0.53402442     +0.78357937
e   0.9912542      Incl.  159.05110     +0.14133354     +0.45301052
From 131 observations 2017 Apr. 7-May 23, mean residual 0".4.

* Magnitudes Graph

        m1 = 14.0 + 5 log d + 10.0 log r

---------------------------------------------------------------------

The orbital elements are published on M.P.E.C. 2017-T14.
The magnitudes graphs are made with Comet for Windows.

---------------------------------------------------------------------

Copyright(C) Seiichi Yoshida (comet@aerith.net). All rights reserved.